Time,TemperatureF,DewpointF,PressureIn,WindDirection,WindDirectionDegrees,WindSpeedMPH,WindSpeedGustMPH,Humidity,HourlyPrecipIn,Conditions,Clouds,dailyrainin,SolarRadiationWatts/m^2,SoftwareType,DateUTC
2013-01-05 00:00:00,34.8,23.5,30.00,SW,236,4.0,12.0,63,0.00,,CLR,0.00,0.00,VWS V14.01,2013-01-05 05:00:00,
2013-01-05 00:01:00,34.7,23.4,30.00,WSW,241,2.0,12.0,63,0.00,,CLR,0.00,0.00,VWS V14.01,2013-01-05 05:01:00,
2013-01-05 00:06:00,34.7,23.4,30.00,NW,308,5.0,14.0,63,0.00,,CLR,0.00,0.00,VWS V14.01,2013-01-05 05:06:00,
2013-01-05 00:11:00,34.7,23.8,30.00,West,265,2.0,14.0,64,0.00,,CLR,0.00,0.00,VWS V14.01,2013-01-05 05:11:00,
2013-01-05 00:16:00,34.7,23.4,30.00,NW,322,5.0,14.0,63,0.00,,CLR,0.00,0.00,VWS V14.01,2013-01-05 05:16:00,
2013-01-05 00:21:00,34.7,23.4,30.00,WSW,251,7.0,14.0,63,0.00,,CLR,0.00,0.00,VWS V14.01,2013-01-05 05:21:00,
2013-01-05 00:26:00,34.8,23.5,30.00,NNW,341,3.0,14.0,63,0.00,,CLR,0.00,0.00,VWS V14.01,2013-01-05 05:26:00,
2013-01-05 00:30:00,34.7,22.6,30.02,SW,236,1.0,15.0,61,0.00,,,0.00,0.00,VWS V14.01,2013-01-05 05:30:00,
2013-01-05 00:31:00,34.8,23.1,30.00,WNW,302,5.0,14.0,62,0.00,,CLR,0.00,0.00,VWS V14.01,2013-01-05 05:31:00,
2013-01-05 00:36:00,34.9,23.2,30.01,West,270,9.0,16.0,62,0.00,,CLR,0.00,0.00,VWS V14.01,2013-01-05 05:36:00,
2013-01-05 00:41:00,34.9,22.8,30.01,NW,320,8.0,16.0,61,0.00,,CLR,0.00,0.00,VWS V14.01,2013-01-05 05:41:00,
2013-01-05 00:46:00,34.9,22.8,30.01,WNW,290,8.0,16.0,61,0.00,,CLR,0.00,0.00,VWS V14.01,2013-01-05 05:46:00,
2013-01-05 00:51:00,34.9,22.8,30.01,West,277,3.0,16.0,61,0.00,,CLR,0.00,0.00,VWS V14.01,2013-01-05 05:51:00,
2013-01-05 00:56:00,34.9,22.8,30.01,NW,325,9.0,16.0,61,0.00,,CLR,0.00,0.00,VWS V14.01,2013-01-05 05:56:00,
2013-01-05 01:00:00,34.4,22.0,30.03,SW,226,1.0,16.0,60,0.00,,,0.00,0.00,VWS V14.01,2013-01-05 06:00:00,
2013-01-05 01:01:00,34.9,22.8,30.01,West,280,4.0,16.0,61,0.00,,CLR,0.00,0.00,VWS V14.01,2013-01-05 06:01:00,
2013-01-05 01:06:00,34.9,22.8,30.01,SW,229,6.0,12.0,61,0.00,,CLR,0.00,0.00,VWS V14.01,2013-01-05 06:06:00,
2013-01-05 01:11:00,34.8,22.7,30.01,WNW,290,7.0,14.0,61,0.00,,CLR,0.00,0.00,VWS V14.01,2013-01-05 06:11:00,
2013-01-05 01:16:00,34.8,22.7,30.01,West,277,5.0,14.0,61,0.00,,CLR,0.00,0.00,VWS V14.01,2013-01-05 06:16:00,
2013-01-05 01:21:00,34.8,22.7,30.02,WSW,240,1.0,15.0,61,0.00,,CLR,0.00,0.00,VWS V14.01,2013-01-05 06:21:00,
2013-01-05 01:26:00,34.7,22.6,30.02,WSW,248,8.0,15.0,61,0.00,,CLR,0.00,0.00,VWS V14.01,2013-01-05 06:26:00,
2013-01-05 01:30:00,34.2,21.8,30.05,WNW,290,11.0,14.0,60,0.00,,,0.00,0.00,VWS V14.01,2013-01-05 06:30:00,
2013-01-05 01:31:00,34.7,22.6,30.02,SW,236,0.0,15.0,61,0.00,,CLR,0.00,0.00,VWS V14.01,2013-01-05 06:31:00,
2013-01-05 01:36:00,34.6,22.5,30.02,SSW,199,0.0,10.0,61,0.00,,CLR,0.00,0.00,VWS V14.01,2013-01-05 06:36:00,
2013-01-05 01:41:00,34.5,22.5,30.02,West,264,4.0,10.0,61,0.00,,CLR,0.00,0.00,VWS V14.01,2013-01-05 06:41:00,
2013-01-05 01:46:00,34.4,22.0,30.03,NNW,333,4.0,11.0,60,0.00,,CLR,0.00,0.00,VWS V14.01,2013-01-05 06:46:00,
2013-01-05 01:51:00,34.4,22.0,30.03,NW,316,8.0,12.0,60,0.00,,CLR,0.00,0.00,VWS V14.01,2013-01-05 06:51:00,
2013-01-05 01:55:00,34.4,22.0,30.03,NW,308,16.0,16.0,60,0.00,,CLR,0.00,0.00,VWS V14.01,2013-01-05 06:55:00,
2013-01-05 02:00:00,34.4,22.0,30.03,SW,226,1.0,16.0,60,0.00,,CLR,0.00,0.00,VWS V14.01,2013-01-05 07:00:00,
2013-01-05 02:05:00,34.3,21.9,30.04,WNW,302,12.0,12.0,60,0.00,,CLR,0.00,0.00,VWS V14.01,2013-01-05 07:05:00,
2013-01-05 02:10:00,34.3,21.9,30.04,West,275,6.0,12.0,60,0.00,,CLR,0.00,0.00,VWS V14.01,2013-01-05 07:10:00,
2013-01-05 02:15:00,34.2,21.8,30.04,NNW,346,3.0,12.0,60,0.00,,CLR,0.00,0.00,VWS V14.01,2013-01-05 07:15:00,
2013-01-05 02:20:00,34.2,21.4,30.05,NNW,333,3.0,12.0,59,0.00,,CLR,0.00,0.00,VWS V14.01,2013-01-05 07:20:00,
2013-01-05 02:25:00,34.2,21.4,30.04,West,275,4.0,14.0,59,0.00,,CLR,0.00,0.00,VWS V14.01,2013-01-05 07:25:00,
2013-01-05 02:30:00,34.2,21.8,30.05,WNW,295,11.0,14.0,60,0.00,,CLR,0.00,0.00,VWS V14.01,2013-01-05 07:30:00,
2013-01-05 02:35:00,34.2,21.4,30.05,WNW,303,2.0,11.0,59,0.00,,CLR,0.00,0.00,VWS V14.01,2013-01-05 07:35:00,
2013-01-05 02:40:00,34.2,21.4,30.05,West,273,4.0,13.0,59,0.00,,CLR,0.00,0.00,VWS V14.01,2013-01-05 07:40:00,
2013-01-05 02:45:00,34.2,21.4,30.06,NNW,327,2.0,13.0,59,0.00,,CLR,0.00,0.00,VWS V14.01,2013-01-05 07:45:00,
2013-01-05 02:50:00,34.1,21.3,30.06,WSW,252,4.0,13.0,59,0.00,,CLR,0.00,0.00,VWS V14.01,2013-01-05 07:50:00,
2013-01-05 02:55:00,34.0,21.2,30.06,WNW,282,6.0,13.0,59,0.00,,CLR,0.00,0.00,VWS V14.01,2013-01-05 07:55:00,
2013-01-05 03:00:00,34.0,21.2,30.06,NNW,336,9.0,13.0,59,0.00,,CLR,0.00,0.00,VWS V14.01,2013-01-05 08:00:00,
2013-01-05 03:05:00,34.1,21.3,30.07,WNW,298,11.0,14.0,59,0.00,,CLR,0.00,0.00,VWS V14.01,2013-01-05 08:05:00,
2013-01-05 03:10:00,34.1,21.3,30.07,NW,308,2.0,14.0,59,0.00,,CLR,0.00,0.00,VWS V14.01,2013-01-05 08:10:00,
2013-01-05 03:15:00,34.1,21.3,30.07,WNW,297,8.0,14.0,59,0.00,,CLR,0.00,0.00,VWS V14.01,2013-01-05 08:15:00,
2013-01-05 03:20:00,34.1,21.7,30.07,West,268,4.0,14.0,60,0.00,,CLR,0.00,0.00,VWS V14.01,2013-01-05 08:20:00,
2013-01-05 03:25:00,34.0,21.6,30.07,WNW,299,7.0,14.0,60,0.00,,CLR,0.00,0.00,VWS V14.01,2013-01-05 08:25:00,
2013-01-05 03:30:00,34.0,21.6,30.07,SW,230,6.0,14.0,60,0.00,,CLR,0.00,0.00,VWS V14.01,2013-01-05 08:30:00,
2013-01-05 03:35:00,34.1,22.1,30.07,NW,314,3.0,11.0,61,0.00,,CLR,0.00,0.00,VWS V14.01,2013-01-05 08:35:00,
2013-01-05 03:40:00,34.0,21.6,30.07,WNW,298,4.0,13.0,60,0.00,,CLR,0.00,0.00,VWS V14.01,2013-01-05 08:40:00,
2013-01-05 03:45:00,33.9,21.9,30.07,WSW,251,4.0,13.0,61,0.00,,CLR,0.00,0.00,VWS V14.01,2013-01-05 08:45:00,
2013-01-05 03:50:00,33.9,21.9,30.07,WNW,296,9.0,13.0,61,0.00,,CLR,0.00,0.00,VWS V14.01,2013-01-05 08:50:00,
2013-01-05 03:55:00,33.9,21.9,30.07,West,276,3.0,13.0,61,0.00,,CLR,0.00,0.00,VWS V14.01,2013-01-05 08:55:00,
2013-01-05 04:00:00,33.9,21.9,30.07,WNW,299,5.0,13.0,61,0.00,,CLR,0.00,0.00,VWS V14.01,2013-01-05 09:00:00,
2013-01-05 04:05:00,33.8,21.8,30.07,WSW,256,6.0,10.0,61,0.00,,CLR,0.00,0.00,VWS V14.01,2013-01-05 09:05:00,
2013-01-05 04:10:00,33.8,21.8,30.07,WNW,296,3.0,10.0,61,0.00,,CLR,0.00,0.00,VWS V14.01,2013-01-05 09:10:00,
2013-01-05 04:15:00,33.8,21.8,30.07,NW,307,3.0,10.0,61,0.00,,CLR,0.00,0.00,VWS V14.01,2013-01-05 09:15:00,
2013-01-05 04:20:00,33.8,21.8,30.07,WNW,289,6.0,10.0,61,0.00,,CLR,0.00,0.00,VWS V14.01,2013-01-05 09:20:00,
2013-01-05 04:25:00,33.8,21.8,30.08,West,274,2.0,10.0,61,0.00,,CLR,0.00,0.00,VWS V14.01,2013-01-05 09:25:00,
2013-01-05 04:30:00,33.8,22.2,30.08,West,281,4.0,10.0,62,0.00,,CLR,0.00,0.00,VWS V14.01,2013-01-05 09:30:00,
2013-01-05 04:35:00,33.8,21.8,30.08,WNW,298,9.0,13.0,61,0.00,,FEW040,0.00,0.00,VWS V14.01,2013-01-05 09:35:00,
2013-01-05 04:40:00,33.8,21.8,30.08,WNW,284,5.0,13.0,61,0.00,,FEW040,0.00,0.00,VWS V14.01,2013-01-05 09:40:00,
2013-01-05 04:45:00,34.0,22.0,30.08,WSW,246,6.0,13.0,61,0.00,,FEW040,0.00,0.00,VWS V14.01,2013-01-05 09:45:00,
2013-01-05 04:50:00,34.0,22.0,30.08,WSW,254,4.0,13.0,61,0.00,,FEW040,0.00,0.00,VWS V14.01,2013-01-05 09:50:00,
2013-01-05 04:55:00,34.0,22.0,30.09,West,267,6.0,13.0,61,0.00,,FEW040,0.00,0.00,VWS V14.01,2013-01-05 09:55:00,
2013-01-05 05:00:00,34.0,22.0,30.09,West,269,1.0,13.0,61,0.00,,CLR,0.00,0.00,VWS V14.01,2013-01-05 10:00:00,
2013-01-05 05:05:00,34.0,22.4,30.09,SW,223,5.0,8.0,62,0.00,,CLR,0.00,0.00,VWS V14.01,2013-01-05 10:05:00,
2013-01-05 05:10:00,34.0,22.0,30.09,WSW,238,4.0,12.0,61,0.00,,CLR,0.00,0.00,VWS V14.01,2013-01-05 10:10:00,
2013-01-05 05:15:00,34.1,22.5,30.10,WSW,258,7.0,12.0,62,0.00,,CLR,0.00,0.00,VWS V14.01,2013-01-05 10:15:00,
2013-01-05 05:20:00,34.0,22.4,30.10,WSW,248,6.0,12.0,62,0.00,,CLR,0.00,0.00,VWS V14.01,2013-01-05 10:20:00,
2013-01-05 05:25:00,33.9,22.3,30.11,WSW,244,2.0,12.0,62,0.00,,CLR,0.00,0.00,VWS V14.01,2013-01-05 10:25:00,
2013-01-05 05:30:00,33.9,22.3,30.11,WSW,247,6.0,12.0,62,0.00,,CLR,0.00,0.00,VWS V14.01,2013-01-05 10:30:00,
2013-01-05 05:35:00,33.9,22.3,30.11,West,279,12.0,12.0,62,0.00,,BKN042,0.00,0.00,VWS V14.01,2013-01-05 10:35:00,
2013-01-05 05:40:00,33.9,22.3,30.11,West,262,6.0,12.0,62,0.00,,BKN042,0.00,0.00,VWS V14.01,2013-01-05 10:40:00,
2013-01-05 05:45:00,33.9,22.3,30.11,West,266,4.0,12.0,62,0.00,,BKN042,0.00,0.00,VWS V14.01,2013-01-05 10:45:00,
2013-01-05 05:50:00,33.9,22.3,30.12,WSW,240,8.0,12.0,62,0.00,,BKN042,0.00,0.00,VWS V14.01,2013-01-05 10:50:00,
2013-01-05 05:55:00,33.9,22.3,30.12,West,259,7.0,12.0,62,0.00,,BKN042,0.00,0.00,VWS V14.01,2013-01-05 10:55:00,
2013-01-05 06:00:00,33.9,22.3,30.12,West,270,9.0,12.0,62,0.00,,BKN042,0.00,0.00,VWS V14.01,2013-01-05 11:00:00,
2013-01-05 06:05:00,33.9,22.3,30.12,SW,234,4.0,9.0,62,0.00,,BKN042,0.00,0.00,VWS V14.01,2013-01-05 11:05:00,
2013-01-05 06:10:00,33.9,22.3,30.13,West,262,7.0,13.0,62,0.00,,BKN042,0.00,0.00,VWS V14.01,2013-01-05 11:10:00,
2013-01-05 06:15:00,33.9,22.3,30.13,West,263,4.0,13.0,62,0.00,,BKN042,0.00,0.00,VWS V14.01,2013-01-05 11:15:00,
2013-01-05 06:20:00,33.8,22.2,30.14,WSW,247,4.0,13.0,62,0.00,,BKN042,0.00,0.00,VWS V14.01,2013-01-05 11:20:00,
2013-01-05 06:25:00,33.8,22.5,30.14,WSW,250,5.0,13.0,63,0.00,,BKN042,0.00,0.00,VWS V14.01,2013-01-05 11:25:00,
2013-01-05 06:30:00,33.9,22.6,30.15,WNW,287,8.0,14.0,63,0.00,,BKN042,0.00,0.00,VWS V14.01,2013-01-05 11:30:00,
2013-01-05 06:35:00,33.9,22.6,30.15,West,279,4.0,11.0,63,0.00,,OVC044,0.00,0.00,VWS V14.01,2013-01-05 11:35:00,
2013-01-05 06:40:00,33.9,22.6,30.15,WSW,256,4.0,11.0,63,0.00,,OVC044,0.00,0.00,VWS V14.01,2013-01-05 11:40:00,
2013-01-05 06:45:00,33.9,22.6,30.16,SW,227,2.0,11.0,63,0.00,,OVC044,0.00,0.00,VWS V14.01,2013-01-05 11:45:00,
2013-01-05 06:50:00,33.9,22.6,30.16,West,260,3.0,12.0,63,0.00,,OVC044,0.00,0.00,VWS V14.01,2013-01-05 11:50:00,
2013-01-05 06:55:00,33.9,22.6,30.16,WSW,252,5.0,12.0,63,0.00,,OVC044,0.00,0.00,VWS V14.01,2013-01-05 11:55:00,
2013-01-05 07:00:00,33.8,22.5,30.16,West,265,3.0,12.0,63,0.00,,OVC044,0.00,0.00,VWS V14.01,2013-01-05 12:00:00,
2013-01-05 07:05:00,33.7,22.5,30.17,West,271,2.0,8.0,63,0.00,,OVC044,0.00,0.00,VWS V14.01,2013-01-05 12:05:00,
2013-01-05 07:10:00,33.7,22.8,30.17,SW,220,2.0,10.0,64,0.00,,OVC044,0.00,0.00,VWS V14.01,2013-01-05 12:10:00,
2013-01-05 07:15:00,33.7,22.8,30.17,West,267,5.0,10.0,64,0.00,,OVC044,0.00,0.00,VWS V14.01,2013-01-05 12:15:00,
2013-01-05 07:20:00,33.6,22.7,30.17,WSW,244,4.0,10.0,64,0.00,,OVC044,0.00,5.00,VWS V14.01,2013-01-05 12:20:00,
2013-01-05 07:25:00,33.5,23.0,30.17,West,260,6.0,10.0,65,0.00,,OVC044,0.00,9.00,VWS V14.01,2013-01-05 12:25:00,
2013-01-05 07:30:00,33.5,23.0,30.17,West,261,1.0,10.0,65,0.00,,OVC044,0.00,11.00,VWS V14.01,2013-01-05 12:30:00,
2013-01-05 07:35:00,33.5,23.0,30.17,WSW,240,3.0,7.0,65,0.00,,BKN044,0.00,12.00,VWS V14.01,2013-01-05 12:35:00,
2013-01-05 07:40:00,33.5,23.0,30.18,West,269,4.0,9.0,65,0.00,,BKN044,0.00,16.00,VWS V14.01,2013-01-05 12:40:00,
2013-01-05 07:45:00,33.7,23.2,30.19,WSW,238,5.0,11.0,65,0.00,,BKN044,0.00,19.00,VWS V14.01,2013-01-05 12:45:00,
2013-01-05 07:50:00,33.8,23.3,30.19,West,269,2.0,11.0,65,0.00,,BKN044,0.00,23.00,VWS V14.01,2013-01-05 12:50:00,
2013-01-05 07:55:00,33.9,23.4,30.19,SSW,207,6.0,11.0,65,0.00,,BKN044,0.00,26.00,VWS V14.01,2013-01-05 12:55:00,
2013-01-05 08:00:00,34.0,23.5,30.20,WSW,249,4.0,11.0,65,0.00,,BKN044,0.00,32.00,VWS V14.01,2013-01-05 13:00:00,
2013-01-05 08:05:00,34.1,23.6,30.20,West,276,4.0,7.0,65,0.00,,BKN044,0.00,39.00,VWS V14.01,2013-01-05 13:05:00,
2013-01-05 08:10:00,34.1,23.6,30.19,WSW,248,5.0,7.0,65,0.00,,BKN044,0.00,51.00,VWS V14.01,2013-01-05 13:10:00,
2013-01-05 08:15:00,34.2,23.7,30.20,WSW,246,6.0,7.0,65,0.00,,BKN044,0.00,47.00,VWS V14.01,2013-01-05 13:15:00,
2013-01-05 08:20:00,34.4,23.9,30.21,WSW,249,5.0,7.0,65,0.00,,BKN044,0.00,70.00,VWS V14.01,2013-01-05 13:20:00,
2013-01-05 08:25:00,34.6,24.1,30.21,West,264,5.0,11.0,65,0.00,,BKN044,0.00,95.00,VWS V14.01,2013-01-05 13:25:00,
2013-01-05 08:30:00,34.8,24.2,30.21,West,265,1.0,11.0,65,0.00,,BKN044,0.00,109.00,VWS V14.01,2013-01-05 13:30:00,
2013-01-05 08:35:00,35.1,24.5,30.21,WNW,288,3.0,8.0,65,0.00,,SCT044,0.00,121.00,VWS V14.01,2013-01-05 13:35:00,
2013-01-05 08:40:00,35.3,24.4,30.21,NW,310,1.0,10.0,64,0.00,,SCT044,0.00,135.00,VWS V14.01,2013-01-05 13:40:00,
2013-01-05 08:45:00,35.6,24.6,30.22,NW,313,3.0,10.0,64,0.00,,SCT044,0.00,149.00,VWS V14.01,2013-01-05 13:45:00,
2013-01-05 08:50:00,35.9,24.9,30.21,WSW,257,2.0,10.0,64,0.00,,SCT044,0.00,163.00,VWS V14.01,2013-01-05 13:50:00,
2013-01-05 08:55:00,36.1,25.1,30.22,WNW,302,4.0,10.0,64,0.00,,SCT044,0.00,179.00,VWS V14.01,2013-01-05 13:55:00,
2013-01-05 09:00:00,36.4,25.0,30.22,WNW,298,3.0,10.0,63,0.00,,SCT044,0.00,192.00,VWS V14.01,2013-01-05 14:00:00,
2013-01-05 09:05:00,36.5,24.7,30.23,West,281,8.0,11.0,62,0.00,,SCT044,0.00,204.00,VWS V14.01,2013-01-05 14:05:00,
2013-01-05 09:10:00,36.7,24.9,30.23,West,277,5.0,11.0,62,0.00,,SCT044,0.00,211.00,VWS V14.01,2013-01-05 14:10:00,
2013-01-05 09:15:00,36.9,25.1,30.23,West,271,9.0,11.0,62,0.00,,SCT044,0.00,223.00,VWS V14.01,2013-01-05 14:15:00,
2013-01-05 09:20:00,37.2,25.8,30.23,West,281,5.0,11.0,63,0.00,,SCT044,0.00,229.00,VWS V14.01,2013-01-05 14:20:00,
2013-01-05 09:25:00,37.4,25.6,30.23,West,277,3.0,11.0,62,0.00,,SCT044,0.00,239.00,VWS V14.01,2013-01-05 14:25:00,
2013-01-05 09:30:00,37.6,25.8,30.23,WNW,293,3.0,11.0,62,0.00,,SCT044,0.00,253.00,VWS V14.01,2013-01-05 14:30:00,
2013-01-05 09:35:00,37.8,25.6,30.24,NNW,347,5.0,11.0,61,0.00,,FEW046,0.00,262.00,VWS V14.01,2013-01-05 14:35:00,
2013-01-05 09:40:00,38.0,25.8,30.24,NW,319,0.0,11.0,61,0.00,,FEW046,0.00,274.00,VWS V14.01,2013-01-05 14:40:00,
2013-01-05 09:45:00,38.4,25.7,30.24,NNW,342,8.0,11.0,60,0.00,,FEW046,0.00,287.00,VWS V14.01,2013-01-05 14:45:00,
2013-01-05 09:50:00,38.6,25.5,30.24,West,280,2.0,11.0,59,0.00,,FEW046,0.00,297.00,VWS V14.01,2013-01-05 14:50:00,
2013-01-05 09:55:00,39.0,25.9,30.24,SW,232,3.0,11.0,59,0.00,,FEW046,0.00,302.00,VWS V14.01,2013-01-05 14:55:00,
2013-01-05 10:00:00,39.3,25.8,30.24,NW,308,3.0,11.0,58,0.00,,FEW046,0.00,316.00,VWS V14.01,2013-01-05 15:00:00,
2013-01-05 10:05:00,39.5,26.0,30.25,NNW,331,4.0,8.0,58,0.00,,FEW046,0.00,323.00,VWS V14.01,2013-01-05 15:05:00,
2013-01-05 10:10:00,39.9,26.3,30.25,North,5,2.0,11.0,58,0.00,,FEW046,0.00,332.00,VWS V14.01,2013-01-05 15:10:00,
2013-01-05 10:15:00,40.3,26.3,30.25,WNW,292,1.0,11.0,57,0.00,,FEW046,0.00,334.00,VWS V14.01,2013-01-05 15:15:00,
2013-01-05 10:20:00,40.5,25.6,30.25,NNW,336,3.0,11.0,55,0.00,,FEW046,0.00,352.00,VWS V14.01,2013-01-05 15:20:00,
2013-01-05 10:25:00,40.6,25.7,30.25,NW,321,5.0,13.0,55,0.00,,FEW046,0.00,355.00,VWS V14.01,2013-01-05 15:25:00,
2013-01-05 10:30:00,40.7,25.8,30.25,NW,319,4.0,13.0,55,0.00,,FEW046,0.00,366.00,VWS V14.01,2013-01-05 15:30:00,
2013-01-05 10:35:00,40.7,25.4,30.25,NW,324,8.0,18.0,54,0.00,,SCT250,0.00,373.00,VWS V14.01,2013-01-05 15:35:00,
2013-01-05 10:40:00,40.5,25.2,30.25,NNW,343,8.0,18.0,54,0.00,,SCT250,0.00,376.00,VWS V14.01,2013-01-05 15:40:00,
2013-01-05 10:45:00,40.6,25.3,30.25,North,350,4.0,18.0,54,0.00,,SCT250,0.00,380.00,VWS V14.01,2013-01-05 15:45:00,
2013-01-05 10:50:00,40.7,25.4,30.25,North,355,10.0,18.0,54,0.00,,SCT250,0.00,383.00,VWS V14.01,2013-01-05 15:50:00,
2013-01-05 10:55:00,40.7,25.4,30.25,NW,318,8.0,18.0,54,0.00,,SCT250,0.00,392.00,VWS V14.01,2013-01-05 15:55:00,
2013-01-05 11:00:00,40.9,26.0,30.24,NW,322,9.0,18.0,55,0.00,,SCT250,0.00,399.00,VWS V14.01,2013-01-05 16:00:00,
2013-01-05 11:05:00,41.0,26.1,30.25,NNW,340,7.0,11.0,55,0.00,,SCT250,0.00,410.00,VWS V14.01,2013-01-05 16:05:00,
2013-01-05 11:10:00,41.0,26.1,30.25,North,5,11.0,12.0,55,0.00,,SCT250,0.00,413.00,VWS V14.01,2013-01-05 16:10:00,
2013-01-05 11:15:00,41.1,26.2,30.25,North,10,5.0,13.0,55,0.00,,SCT250,0.00,417.00,VWS V14.01,2013-01-05 16:15:00,
2013-01-05 11:20:00,41.0,25.2,30.25,NNW,337,4.0,20.0,53,0.00,,SCT250,0.00,422.00,VWS V14.01,2013-01-05 16:20:00,
2013-01-05 11:25:00,41.1,25.7,30.25,West,281,12.0,20.0,54,0.00,,SCT250,0.00,424.00,VWS V14.01,2013-01-05 16:25:00,
2013-01-05 11:30:00,41.0,25.2,30.25,NW,313,6.0,20.0,53,0.00,,SCT250,0.00,425.00,VWS V14.01,2013-01-05 16:30:00,
2013-01-05 11:35:00,41.0,25.2,30.26,NW,309,2.0,17.0,53,0.00,,SCT250,0.00,436.00,VWS V14.01,2013-01-05 16:35:00,
2013-01-05 11:40:00,41.1,25.7,30.25,North,350,5.0,17.0,54,0.00,,SCT250,0.00,431.00,VWS V14.01,2013-01-05 16:40:00,
2013-01-05 11:45:00,41.1,25.7,30.24,NNW,346,6.0,21.0,54,0.00,,SCT250,0.00,438.00,VWS V14.01,2013-01-05 16:45:00,
2013-01-05 11:50:00,41.3,25.5,30.24,North,5,10.0,21.0,53,0.00,,SCT250,0.00,434.00,VWS V14.01,2013-01-05 16:50:00,
2013-01-05 11:55:00,41.3,25.5,30.24,NW,323,7.0,21.0,53,0.00,,SCT250,0.00,438.00,VWS V14.01,2013-01-05 16:55:00,
2013-01-05 12:00:00,41.3,25.5,30.23,NW,318,6.0,21.0,53,0.00,,SCT250,0.00,436.00,VWS V14.01,2013-01-05 17:00:00,
2013-01-05 12:05:00,41.4,26.0,30.23,North,360,9.0,15.0,54,0.00,,SCT250,0.00,436.00,VWS V14.01,2013-01-05 17:05:00,
2013-01-05 12:10:00,41.4,26.0,30.23,North,355,9.0,15.0,54,0.00,,SCT250,0.00,432.00,VWS V14.01,2013-01-05 17:10:00,
2013-01-05 12:15:00,41.5,26.1,30.23,North,355,7.0,17.0,54,0.00,,SCT250,0.00,436.00,VWS V14.01,2013-01-05 17:15:00,
2013-01-05 12:20:00,41.7,26.3,30.22,NNW,331,6.0,17.0,54,0.00,,SCT250,0.00,441.00,VWS V14.01,2013-01-05 17:20:00,
2013-01-05 12:25:00,41.9,26.0,30.23,NNE,30,5.0,17.0,53,0.00,,SCT250,0.00,454.00,VWS V14.01,2013-01-05 17:25:00,
2013-01-05 12:30:00,41.8,25.5,30.22,North,355,15.0,17.0,52,0.00,,SCT250,0.00,450.00,VWS V14.01,2013-01-05 17:30:00,
2013-01-05 12:35:00,41.6,25.8,30.22,NW,304,9.0,15.0,53,0.00,,SCT250,0.00,439.00,VWS V14.01,2013-01-05 17:35:00,
2013-01-05 12:40:00,41.6,25.3,30.22,NNE,22,8.0,15.0,52,0.00,,SCT250,0.00,436.00,VWS V14.01,2013-01-05 17:40:00,
2013-01-05 12:45:00,41.5,25.7,30.22,North,360,9.0,15.0,53,0.00,,SCT250,0.00,436.00,VWS V14.01,2013-01-05 17:45:00,
2013-01-05 12:50:00,41.5,26.1,30.22,NNW,331,10.0,15.0,54,0.00,,SCT250,0.00,439.00,VWS V14.01,2013-01-05 17:50:00,
2013-01-05 12:55:00,41.7,25.9,30.21,North,5,8.0,15.0,53,0.00,,SCT250,0.00,445.00,VWS V14.01,2013-01-05 17:55:00,
2013-01-05 13:00:00,42.0,26.1,30.21,NNE,12,9.0,15.0,53,0.00,,SCT250,0.00,439.00,VWS V14.01,2013-01-05 18:00:00,
2013-01-05 13:05:00,42.1,25.8,30.21,NNW,338,6.0,11.0,52,0.00,,SCT250,0.00,473.00,VWS V14.01,2013-01-05 18:05:00,
2013-01-05 13:10:00,42.4,26.5,30.21,NNW,345,9.0,11.0,53,0.00,,SCT250,0.00,455.00,VWS V14.01,2013-01-05 18:10:00,
2013-01-05 13:15:00,42.4,26.0,30.22,North,360,10.0,14.0,52,0.00,,SCT250,0.00,424.00,VWS V14.01,2013-01-05 18:15:00,
2013-01-05 13:20:00,42.3,25.9,30.22,NNE,15,8.0,14.0,52,0.00,,SCT250,0.00,406.00,VWS V14.01,2013-01-05 18:20:00,
2013-01-05 13:25:00,42.4,26.0,30.22,North,5,4.0,14.0,52,0.00,,SCT250,0.00,397.00,VWS V14.01,2013-01-05 18:25:00,
2013-01-05 13:30:00,42.6,25.8,30.22,West,261,7.0,14.0,51,0.00,,SCT250,0.00,387.00,VWS V14.01,2013-01-05 18:30:00,
2013-01-05 13:35:00,42.6,25.3,30.22,NW,324,8.0,10.0,50,0.00,,SCT250,0.00,378.00,VWS V14.01,2013-01-05 18:35:00,
2013-01-05 13:40:00,42.4,25.6,30.22,North,349,3.0,14.0,51,0.00,,SCT250,0.00,369.00,VWS V14.01,2013-01-05 18:40:00,
2013-01-05 13:45:00,42.5,25.2,30.22,West,271,5.0,14.0,50,0.00,,SCT250,0.00,373.00,VWS V14.01,2013-01-05 18:45:00,
2013-01-05 13:50:00,42.5,25.7,30.23,NW,325,6.0,14.0,51,0.00,,SCT250,0.00,357.00,VWS V14.01,2013-01-05 18:50:00,
2013-01-05 13:55:00,42.7,25.4,30.23,NW,318,7.0,14.0,50,0.00,,SCT250,0.00,346.00,VWS V14.01,2013-01-05 18:55:00,
2013-01-05 14:00:00,42.7,25.4,30.23,NNW,348,2.0,14.0,50,0.00,,SCT250,0.00,339.00,VWS V14.01,2013-01-05 19:00:00,
2013-01-05 14:05:00,42.7,25.4,30.23,NNW,327,4.0,11.0,50,0.00,,SCT250,0.00,330.00,VWS V14.01,2013-01-05 19:05:00,
2013-01-05 14:10:00,42.7,25.9,30.23,NW,314,0.0,11.0,51,0.00,,SCT250,0.00,323.00,VWS V14.01,2013-01-05 19:10:00,
2013-01-05 14:15:00,42.9,25.6,30.22,NW,311,1.0,11.0,50,0.00,,SCT250,0.00,315.00,VWS V14.01,2013-01-05 19:15:00,
2013-01-05 14:20:00,42.8,25.5,30.23,NNE,12,4.0,13.0,50,0.00,,SCT250,0.00,301.00,VWS V14.01,2013-01-05 19:20:00,
2013-01-05 14:25:00,42.6,25.8,30.22,NNW,344,5.0,13.0,51,0.00,,SCT250,0.00,288.00,VWS V14.01,2013-01-05 19:25:00,
2013-01-05 14:30:00,42.6,25.8,30.22,NNE,19,8.0,13.0,51,0.00,,SCT250,0.00,281.00,VWS V14.01,2013-01-05 19:30:00,
2013-01-05 14:35:00,42.6,25.8,30.22,NNW,342,3.0,9.0,51,0.00,,SCT200,0.00,272.00,VWS V14.01,2013-01-05 19:35:00,
2013-01-05 14:40:00,42.7,25.9,30.22,NNW,339,3.0,9.0,51,0.00,,SCT200,0.00,264.00,VWS V14.01,2013-01-05 19:40:00,
2013-01-05 14:45:00,42.9,25.6,30.23,NW,325,2.0,9.0,50,0.00,,SCT200,0.00,253.00,VWS V14.01,2013-01-05 19:45:00,
2013-01-05 14:50:00,42.9,25.6,30.23,NNE,13,6.0,9.0,50,0.00,,SCT200,0.00,243.00,VWS V14.01,2013-01-05 19:50:00,
2013-01-05 14:55:00,43.0,26.1,30.23,NNW,332,3.0,9.0,51,0.00,,SCT200,0.00,229.00,VWS V14.01,2013-01-05 19:55:00,
2013-01-05 15:00:00,42.9,26.0,30.23,WNW,291,4.0,9.0,51,0.00,,SCT200,0.00,216.00,VWS V14.01,2013-01-05 20:00:00,
2013-01-05 15:05:00,42.9,26.0,30.23,NNW,333,6.0,6.0,51,0.00,,SCT200,0.00,200.00,VWS V14.01,2013-01-05 20:05:00,
2013-01-05 15:10:00,42.8,25.9,30.23,North,360,4.0,7.0,51,0.00,,SCT200,0.00,188.00,VWS V14.01,2013-01-05 20:10:00,
2013-01-05 15:15:00,42.8,25.9,30.23,NNW,330,8.0,8.0,51,0.00,,SCT200,0.00,176.00,VWS V14.01,2013-01-05 20:15:00,
2013-01-05 15:20:00,42.7,25.9,30.23,West,272,2.0,8.0,51,0.00,,SCT200,0.00,163.00,VWS V14.01,2013-01-05 20:20:00,
2013-01-05 15:25:00,42.7,25.9,30.23,North,360,2.0,8.0,51,0.00,,SCT200,0.00,146.00,VWS V14.01,2013-01-05 20:25:00,
2013-01-05 15:30:00,42.6,26.2,30.23,North,5,3.0,8.0,52,0.00,,SCT200,0.00,130.00,VWS V14.01,2013-01-05 20:30:00,
2013-01-05 15:35:00,42.5,26.1,30.23,NNW,334,8.0,8.0,52,0.00,,SCT200,0.00,114.00,VWS V14.01,2013-01-05 20:35:00,
2013-01-05 15:40:00,42.4,26.0,30.23,WSW,248,5.0,8.0,52,0.00,,SCT200,0.00,74.00,VWS V14.01,2013-01-05 20:40:00,
2013-01-05 15:45:00,42.2,25.9,30.23,NNE,26,1.0,8.0,52,0.00,,SCT200,0.00,70.00,VWS V14.01,2013-01-05 20:45:00,
2013-01-05 15:50:00,42.1,25.8,30.23,NNE,24,0.0,8.0,52,0.00,,SCT200,0.00,77.00,VWS V14.01,2013-01-05 20:50:00,
2013-01-05 15:55:00,42.1,25.8,30.24,NW,324,3.0,8.0,52,0.00,,SCT200,0.00,62.00,VWS V14.01,2013-01-05 20:55:00,
2013-01-05 16:00:00,42.0,26.1,30.23,WNW,301,2.0,8.0,53,0.00,,SCT200,0.00,47.00,VWS V14.01,2013-01-05 21:00:00,
2013-01-05 16:05:00,41.9,26.5,30.24,WNW,302,0.0,2.0,54,0.00,,SCT200,0.00,19.00,VWS V14.01,2013-01-05 21:05:00,
2013-01-05 16:10:00,41.7,25.9,30.24,North,11,0.0,4.0,53,0.00,,SCT200,0.00,16.00,VWS V14.01,2013-01-05 21:10:00,
2013-01-05 16:15:00,41.6,25.8,30.24,North,11,0.0,4.0,53,0.00,,SCT200,0.00,12.00,VWS V14.01,2013-01-05 21:15:00,
2013-01-05 16:20:00,41.3,25.9,30.24,North,11,0.0,4.0,54,0.00,,SCT200,0.00,9.00,VWS V14.01,2013-01-05 21:20:00,
2013-01-05 16:25:00,41.0,26.1,30.24,North,11,0.0,4.0,55,0.00,,SCT200,0.00,7.00,VWS V14.01,2013-01-05 21:25:00,
2013-01-05 16:30:00,40.5,25.6,30.24,North,11,0.0,4.0,55,0.00,,SCT200,0.00,5.00,VWS V14.01,2013-01-05 21:30:00,
2013-01-05 16:35:00,40.2,25.8,30.24,North,11,0.0,0.0,56,0.00,,FEW200,0.00,0.00,VWS V14.01,2013-01-05 21:35:00,
2013-01-05 16:40:00,39.8,25.4,30.24,North,11,0.0,0.0,56,0.00,,FEW200,0.00,0.00,VWS V14.01,2013-01-05 21:40:00,
2013-01-05 16:45:00,39.4,25.0,30.24,North,11,0.0,0.0,56,0.00,,FEW200,0.00,0.00,VWS V14.01,2013-01-05 21:45:00,
2013-01-05 16:50:00,38.9,25.4,30.24,North,11,1.0,2.0,58,0.00,,FEW200,0.00,0.00,VWS V14.01,2013-01-05 21:50:00,
2013-01-05 16:55:00,38.2,25.1,30.24,North,11,0.0,2.0,59,0.00,,FEW200,0.00,0.00,VWS V14.01,2013-01-05 21:55:00,
2013-01-05 17:00:00,37.7,24.7,30.24,North,11,0.0,2.0,59,0.00,,FEW200,0.00,0.00,VWS V14.01,2013-01-05 22:00:00,
2013-01-05 17:05:00,37.3,25.1,30.24,North,11,0.0,1.0,61,0.00,,FEW200,0.00,0.00,VWS V14.01,2013-01-05 22:05:00,
2013-01-05 17:10:00,36.9,24.7,30.24,North,11,0.0,1.0,61,0.00,,FEW200,0.00,0.00,VWS V14.01,2013-01-05 22:10:00,
2013-01-05 17:15:00,36.6,24.8,30.24,North,11,0.0,2.0,62,0.00,,FEW200,0.00,0.00,VWS V14.01,2013-01-05 22:15:00,
2013-01-05 17:20:00,36.3,25.3,30.25,SSE,155,1.0,3.0,64,0.00,,FEW200,0.00,0.00,VWS V14.01,2013-01-05 22:20:00,
2013-01-05 17:25:00,36.0,25.4,30.25,SSE,159,0.0,3.0,65,0.00,,FEW200,0.00,0.00,VWS V14.01,2013-01-05 22:25:00,
2013-01-05 17:30:00,35.7,25.1,30.25,SSE,159,0.0,3.0,65,0.00,,FEW200,0.00,0.00,VWS V14.01,2013-01-05 22:30:00,
2013-01-05 17:35:00,35.5,25.3,30.25,SSE,159,0.0,1.0,66,0.00,,SCT200,0.00,0.00,VWS V14.01,2013-01-05 22:35:00,
2013-01-05 17:40:00,35.2,25.7,30.25,SSE,159,0.0,1.0,68,0.00,,SCT200,0.00,0.00,VWS V14.01,2013-01-05 22:40:00,
2013-01-05 17:45:00,35.0,25.5,30.26,SSE,159,0.0,1.0,68,0.00,,SCT200,0.00,0.00,VWS V14.01,2013-01-05 22:45:00,
2013-01-05 17:49:00,34.7,25.6,30.26,SSE,159,0.0,2.0,69,0.00,,SCT200,0.00,0.00,VWS V14.01,2013-01-05 22:49:00,
2013-01-05 17:54:00,34.6,25.8,30.26,SSE,159,0.0,2.0,70,0.00,,SCT200,0.00,0.00,VWS V14.01,2013-01-05 22:54:00,
2013-01-05 17:59:00,34.4,25.6,30.26,SSE,159,0.0,2.0,70,0.00,,SCT200,0.00,0.00,VWS V14.01,2013-01-05 22:59:00,
2013-01-05 18:00:00,32.2,25.5,30.27,South,171,1.0,3.0,76,0.00,,,0.00,0.00,VWS V14.01,2013-01-05 23:00:00,
2013-01-05 18:04:00,34.3,25.9,30.26,SSE,160,0.0,3.0,71,0.00,,SCT200,0.00,0.00,VWS V14.01,2013-01-05 23:04:00,
2013-01-05 18:09:00,34.1,25.7,30.26,SSE,160,0.0,3.0,71,0.00,,SCT200,0.00,0.00,VWS V14.01,2013-01-05 23:09:00,
2013-01-05 18:14:00,33.9,25.8,30.27,SSE,160,1.0,3.0,72,0.00,,SCT200,0.00,0.00,VWS V14.01,2013-01-05 23:14:00,
2013-01-05 18:20:00,33.7,25.6,30.26,SSE,160,0.0,3.0,72,0.00,,SCT200,0.00,0.00,VWS V14.01,2013-01-05 23:20:00,
2013-01-05 18:24:00,33.5,25.5,30.27,SSE,167,0.0,3.0,72,0.00,,SCT200,0.00,0.00,VWS V14.01,2013-01-05 23:24:00,
2013-01-05 18:29:00,33.4,26.0,30.27,SSE,167,0.0,3.0,74,0.00,,SCT200,0.00,0.00,VWS V14.01,2013-01-05 23:29:00,
2013-01-05 18:30:00,31.2,25.1,30.26,South,174,0.0,3.0,78,0.00,,,0.00,0.00,VWS V14.01,2013-01-05 23:30:00,
2013-01-05 18:34:00,33.2,25.5,30.27,SSE,168,1.0,2.0,73,0.00,,SCT200,0.00,0.00,VWS V14.01,2013-01-05 23:34:00,
2013-01-05 18:39:00,33.0,25.6,30.27,South,169,3.0,3.0,74,0.00,,SCT200,0.00,0.00,VWS V14.01,2013-01-05 23:39:00,
2013-01-05 18:44:00,33.0,26.0,30.27,South,170,0.0,3.0,75,0.00,,SCT200,0.00,0.00,VWS V14.01,2013-01-05 23:44:00,
2013-01-05 18:49:00,32.8,25.8,30.26,South,171,0.0,3.0,75,0.00,,SCT200,0.00,0.00,VWS V14.01,2013-01-05 23:49:00,
2013-01-05 18:54:00,32.6,25.6,30.27,South,171,0.0,3.0,75,0.00,,SCT200,0.00,0.00,VWS V14.01,2013-01-05 23:54:00,
2013-01-05 18:59:00,32.3,25.6,30.27,South,171,1.0,3.0,76,0.00,,SCT200,0.00,0.00,VWS V14.01,2013-01-05 23:59:00,
2013-01-05 19:00:00,30.6,25.2,30.26,South,174,0.0,3.0,80,0.00,,,0.00,0.00,VWS V14.01,2013-01-06 00:00:00,
2013-01-05 19:04:00,32.0,25.3,30.26,South,171,0.0,1.0,76,0.00,,SCT200,0.00,0.00,VWS V14.01,2013-01-06 00:04:00,
2013-01-05 19:09:00,31.9,25.5,30.26,South,171,0.0,2.0,77,0.00,,SCT200,0.00,0.00,VWS V14.01,2013-01-06 00:09:00,
2013-01-05 19:14:00,31.7,25.3,30.27,South,171,1.0,2.0,77,0.00,,SCT200,0.00,0.00,VWS V14.01,2013-01-06 00:14:00,
2013-01-05 19:19:00,31.5,25.1,30.27,South,173,2.0,3.0,77,0.00,,SCT200,0.00,0.00,VWS V14.01,2013-01-06 00:19:00,
2013-01-05 19:24:00,31.4,25.4,30.27,South,174,0.0,3.0,78,0.00,,SCT200,0.00,0.00,VWS V14.01,2013-01-06 00:24:00,
2013-01-05 19:29:00,31.3,25.2,30.26,South,174,0.0,3.0,78,0.00,,SCT200,0.00,0.00,VWS V14.01,2013-01-06 00:29:00,
2013-01-05 19:30:00,30.5,24.8,30.24,South,174,1.0,3.0,79,0.00,,,0.00,0.00,VWS V14.01,2013-01-06 00:30:00,
2013-01-05 19:34:00,31.2,25.1,30.27,South,174,0.0,2.0,78,0.00,,SCT200,0.00,0.00,VWS V14.01,2013-01-06 00:34:00,
2013-01-05 19:39:00,31.0,25.0,30.26,South,174,1.0,2.0,78,0.00,,SCT200,0.00,0.00,VWS V14.01,2013-01-06 00:39:00,
2013-01-05 19:44:00,30.9,24.9,30.26,South,174,0.0,3.0,78,0.00,,SCT200,0.00,0.00,VWS V14.01,2013-01-06 00:44:00,
2013-01-05 19:49:00,30.8,25.1,30.26,South,174,2.0,3.0,79,0.00,,SCT200,0.00,0.00,VWS V14.01,2013-01-06 00:49:00,
2013-01-05 19:54:00,30.7,25.0,30.26,South,174,0.0,3.0,79,0.00,,SCT200,0.00,0.00,VWS V14.01,2013-01-06 00:54:00,
2013-01-05 19:59:00,30.6,24.9,30.26,South,174,0.0,3.0,79,0.00,,SCT200,0.00,0.00,VWS V14.01,2013-01-06 00:59:00,
2013-01-05 20:00:00,29.9,24.8,30.24,South,178,1.0,4.0,81,0.00,,,0.00,0.00,VWS V14.01,2013-01-06 01:00:00,
2013-01-05 20:04:00,30.6,25.2,30.26,South,174,0.0,0.0,80,0.00,,SCT200,0.00,0.00,VWS V14.01,2013-01-06 01:04:00,
2013-01-05 20:09:00,30.6,25.2,30.25,South,174,2.0,3.0,80,0.00,,SCT200,0.00,0.00,VWS V14.01,2013-01-06 01:09:00,
2013-01-05 20:14:00,30.7,25.3,30.25,South,174,1.0,3.0,80,0.00,,SCT200,0.00,0.00,VWS V14.01,2013-01-06 01:14:00,
2013-01-05 20:19:00,30.7,25.0,30.25,South,174,3.0,3.0,79,0.00,,SCT200,0.00,0.00,VWS V14.01,2013-01-06 01:19:00,
2013-01-05 20:24:00,30.6,24.9,30.24,South,174,1.0,3.0,79,0.00,,SCT200,0.00,0.00,VWS V14.01,2013-01-06 01:24:00,
2013-01-05 20:29:00,30.5,24.8,30.25,South,174,1.0,3.0,79,0.00,,SCT200,0.00,0.00,VWS V14.01,2013-01-06 01:29:00,
2013-01-05 20:30:00,30.4,25.3,30.24,SSW,202,0.0,3.0,81,0.00,,,0.00,0.00,VWS V14.01,2013-01-06 01:30:00,
2013-01-05 20:34:00,30.4,24.7,30.24,South,177,4.0,4.0,79,0.00,,SCT200,0.00,0.00,VWS V14.01,2013-01-06 01:34:00,
2013-01-05 20:39:00,30.1,24.7,30.25,South,178,0.0,4.0,80,0.00,,SCT200,0.00,0.00,VWS V14.01,2013-01-06 01:39:00,
2013-01-05 20:44:00,30.2,24.8,30.24,South,178,1.0,4.0,80,0.00,,SCT200,0.00,0.00,VWS V14.01,2013-01-06 01:44:00,
2013-01-05 20:49:00,30.0,24.6,30.24,South,178,0.0,4.0,80,0.00,,SCT200,0.00,0.00,VWS V14.01,2013-01-06 01:49:00,
2013-01-05 20:54:00,29.9,24.8,30.24,South,178,0.0,4.0,81,0.00,,SCT200,0.00,0.00,VWS V14.01,2013-01-06 01:54:00,
2013-01-05 20:59:00,29.8,24.7,30.24,South,178,1.0,4.0,81,0.00,,SCT200,0.00,0.00,VWS V14.01,2013-01-06 01:59:00,
2013-01-05 21:00:00,30.8,25.4,30.24,SSW,200,0.0,3.0,80,0.00,,,0.00,0.00,VWS V14.01,2013-01-06 02:00:00,
2013-01-05 21:04:00,29.9,24.8,30.24,South,178,0.0,1.0,81,0.00,,SCT200,0.00,0.00,VWS V14.01,2013-01-06 02:04:00,
2013-01-05 21:09:00,30.1,25.3,30.24,South,178,2.0,2.0,82,0.00,,SCT200,0.00,0.00,VWS V14.01,2013-01-06 02:09:00,
2013-01-05 21:14:00,30.1,25.0,30.24,SSW,192,1.0,3.0,81,0.00,,SCT200,0.00,0.00,VWS V14.01,2013-01-06 02:14:00,
2013-01-05 21:19:00,30.4,25.3,30.24,SSW,192,0.0,3.0,81,0.00,,SCT200,0.00,0.00,VWS V14.01,2013-01-06 02:19:00,
2013-01-05 21:24:00,30.4,25.0,30.25,SSW,202,2.0,3.0,80,0.00,,SCT200,0.00,0.00,VWS V14.01,2013-01-06 02:24:00,
2013-01-05 21:29:00,30.4,25.0,30.24,SSW,202,0.0,3.0,80,0.00,,SCT200,0.00,0.00,VWS V14.01,2013-01-06 02:29:00,
2013-01-05 21:30:00,31.6,25.2,30.23,SSW,213,2.0,4.0,77,0.00,,,0.00,0.00,VWS V14.01,2013-01-06 02:30:00,
2013-01-05 21:34:00,30.7,25.6,30.23,SSW,202,0.0,1.0,81,0.00,,SCT200,0.00,0.00,VWS V14.01,2013-01-06 02:34:00,
2013-01-05 21:39:00,30.5,25.1,30.23,SSW,202,1.0,1.0,80,0.00,,SCT200,0.00,0.00,VWS V14.01,2013-01-06 02:39:00,
2013-01-05 21:44:00,30.3,24.9,30.24,SSW,202,2.0,3.0,80,0.00,,SCT200,0.00,0.00,VWS V14.01,2013-01-06 02:44:00,
2013-01-05 21:49:00,30.3,24.9,30.24,SSW,203,2.0,3.0,80,0.00,,SCT200,0.00,0.00,VWS V14.01,2013-01-06 02:49:00,
2013-01-05 21:54:00,30.6,25.5,30.24,SSW,203,2.0,3.0,81,0.00,,SCT200,0.00,0.00,VWS V14.01,2013-01-06 02:54:00,
2013-01-05 21:59:00,30.7,25.3,30.24,SSW,200,1.0,3.0,80,0.00,,SCT200,0.00,0.00,VWS V14.01,2013-01-06 02:59:00,
2013-01-05 22:00:00,32.4,26.0,30.21,SSW,213,1.0,3.0,77,0.00,,,0.00,0.00,VWS V14.01,2013-01-06 03:00:00,
2013-01-05 22:04:00,30.9,25.2,30.23,SSW,200,1.0,2.0,79,0.00,,SCT200,0.00,0.00,VWS V14.01,2013-01-06 03:04:00,
2013-01-05 22:09:00,31.2,25.5,30.22,SSW,200,0.0,2.0,79,0.00,,SCT200,0.00,0.00,VWS V14.01,2013-01-06 03:09:00,
2013-01-05 22:14:00,31.2,25.5,30.23,SSW,200,1.0,3.0,79,0.00,,SCT200,0.00,0.00,VWS V14.01,2013-01-06 03:14:00,
2013-01-05 22:19:00,31.1,25.0,30.23,SSW,207,2.0,3.0,78,0.00,,SCT200,0.00,0.00,VWS V14.01,2013-01-06 03:19:00,
2013-01-05 22:24:00,31.4,25.0,30.23,SSW,213,1.0,4.0,77,0.00,,SCT200,0.00,0.00,VWS V14.01,2013-01-06 03:24:00,
2013-01-05 22:29:00,31.6,25.2,30.23,SSW,213,2.0,4.0,77,0.00,,SCT200,0.00,0.00,VWS V14.01,2013-01-06 03:29:00,
2013-01-05 22:30:00,33.7,26.6,30.22,WSW,241,1.0,5.0,75,0.00,,,0.00,0.00,VWS V14.01,2013-01-06 03:30:00,
2013-01-05 22:34:00,31.7,25.0,30.23,SSW,213,0.0,3.0,76,0.00,,BKN250,0.00,0.00,VWS V14.01,2013-01-06 03:34:00,
2013-01-05 22:39:00,32.3,25.9,30.23,SSW,213,0.0,3.0,77,0.00,,BKN250,0.00,0.00,VWS V14.01,2013-01-06 03:39:00,
2013-01-05 22:44:00,32.2,25.5,30.22,SSW,213,0.0,3.0,76,0.00,,BKN250,0.00,0.00,VWS V14.01,2013-01-06 03:44:00,
2013-01-05 22:49:00,32.2,25.5,30.22,SSW,213,1.0,3.0,76,0.00,,BKN250,0.00,0.00,VWS V14.01,2013-01-06 03:49:00,
2013-01-05 22:54:00,32.4,26.0,30.21,SSW,213,0.0,3.0,77,0.00,,BKN250,0.00,0.00,VWS V14.01,2013-01-06 03:54:00,
2013-01-05 22:59:00,32.4,26.0,30.21,SSW,213,2.0,3.0,77,0.00,,BKN250,0.00,0.00,VWS V14.01,2013-01-06 03:59:00,
2013-01-05 23:00:00,33.6,26.2,30.19,WSW,240,0.0,2.0,74,0.00,,,0.00,0.00,VWS V14.01,2013-01-06 04:00:00,
2013-01-05 23:04:00,32.3,25.6,30.21,SSW,213,2.0,2.0,76,0.00,,BKN250,0.00,0.00,VWS V14.01,2013-01-06 04:04:00,
2013-01-05 23:09:00,32.5,26.1,30.21,SSW,213,1.0,2.0,77,0.00,,BKN250,0.00,0.00,VWS V14.01,2013-01-06 04:09:00,
2013-01-05 23:14:00,32.9,26.5,30.22,SSW,213,2.0,2.0,77,0.00,,BKN250,0.00,0.00,VWS V14.01,2013-01-06 04:14:00,
2013-01-05 23:19:00,32.9,25.9,30.22,WSW,241,3.0,5.0,75,0.00,,BKN250,0.00,0.00,VWS V14.01,2013-01-06 04:19:00,
2013-01-05 23:24:00,33.0,26.0,30.22,WSW,241,2.0,5.0,75,0.00,,BKN250,0.00,0.00,VWS V14.01,2013-01-06 04:24:00,
2013-01-05 23:29:00,33.5,26.4,30.22,WSW,241,2.0,5.0,75,0.00,,BKN250,0.00,0.00,VWS V14.01,2013-01-06 04:29:00,
2013-01-05 23:30:00,33.3,26.6,30.21,WSW,240,0.0,3.0,76,0.00,,,0.00,0.00,VWS V14.01,2013-01-06 04:30:00,
2013-01-05 23:34:00,34.0,26.6,30.21,WSW,240,2.0,2.0,74,0.00,,BKN250,0.00,0.00,VWS V14.01,2013-01-06 04:34:00,
2013-01-05 23:39:00,34.0,26.6,30.21,WSW,241,0.0,2.0,74,0.00,,BKN250,0.00,0.00,VWS V14.01,2013-01-06 04:39:00,
2013-01-05 23:44:00,33.9,26.8,30.20,WSW,241,1.0,2.0,75,0.00,,BKN250,0.00,0.00,VWS V14.01,2013-01-06 04:44:00,
2013-01-05 23:49:00,34.0,26.9,30.19,WSW,240,0.0,2.0,75,0.00,,BKN250,0.00,0.00,VWS V14.01,2013-01-06 04:49:00,
2013-01-05 23:54:00,33.9,26.5,30.19,WSW,240,1.0,2.0,74,0.00,,BKN250,0.00,0.00,VWS V14.01,2013-01-06 04:54:00,
2013-01-05 23:59:00,33.7,26.3,30.19,WSW,240,0.0,2.0,74,0.00,,BKN250,0.00,0.00,VWS V14.01,2013-01-06 04:59:00,